AEE270 LGAV-LGKR

Flight info

Callsign AEE270
Flight time 0h 39m
Altitude 30000
Route DCT KOR UL53 PARNA DCT
Aircraft A320/M-SDE3/L

Departure

Time 2026-05-05 18:02
Airport Athens Eleftherios Venizelos International Airport (LGAV)

Arrival

Time 2026-05-05 18:41
Airport Corfu Ioannis Kapodistrias International Airport (LGKR)
Time Latitude Longitude Altitude Speed Heading
2026-05-05 17:27 37.93836 23.95061 301 ft 0 kts 308°
2026-05-05 17:51 37.93832 23.95068 301 ft 4 kts 307°
2026-05-05 17:51 37.93816 23.95097 301 ft 4 kts 298°
2026-05-05 17:51 37.93806 23.95128 301 ft 4 kts 279°
2026-05-05 17:51 37.93808 23.95157 300 ft 4 kts 226°
2026-05-05 17:52 37.93814 23.95165 300 ft 0 kts 217°
2026-05-05 17:54 37.93810 23.95161 300 ft 3 kts 217°
2026-05-05 17:54 37.93743 23.95107 300 ft 13 kts 188°
2026-05-05 17:54 37.93673 23.95185 299 ft 15 kts 127°
2026-05-05 17:55 37.93578 23.95212 299 ft 18 kts 217°
2026-05-05 17:55 37.93472 23.95114 301 ft 20 kts 218°
2026-05-05 17:55 37.93357 23.95003 300 ft 22 kts 216°
2026-05-05 17:55 37.93231 23.94884 302 ft 23 kts 215°
2026-05-05 17:56 37.93107 23.94765 300 ft 23 kts 217°
2026-05-05 17:56 37.92974 23.94640 302 ft 25 kts 216°
2026-05-05 17:56 37.92831 23.94505 302 ft 26 kts 217°
2026-05-05 17:56 37.92679 23.94360 304 ft 28 kts 217°
2026-05-05 17:57 37.92571 23.94281 304 ft 12 kts 168°
2026-05-05 17:57 37.92529 23.94337 306 ft 0 kts 127°
2026-05-05 17:59 37.92523 23.94348 306 ft 6 kts 127°
2026-05-05 17:59 37.92484 23.94427 309 ft 15 kts 96°
2026-05-05 18:00 37.92546 23.94510 307 ft 3 kts 37°
2026-05-05 18:00 37.92547 23.94512 306 ft 0 kts 37°
2026-05-05 18:01 37.92600 23.94561 305 ft 37 kts 37°
2026-05-05 18:01 37.93008 23.94949 297 ft 106 kts 37°
2026-05-05 18:01 37.93739 23.95643 281 ft 155 kts 37°
2026-05-05 18:02 37.94635 23.96509 781 ft 161 kts 37°
2026-05-05 18:02 37.95523 23.97369 1492 ft 160 kts 37°
2026-05-05 18:02 37.96417 23.98223 2118 ft 164 kts 36°
2026-05-05 18:02 37.97382 23.99142 2441 ft 184 kts 36°
2026-05-05 18:03 37.98465 24.00176 2745 ft 206 kts 36°
2026-05-05 18:03 37.99651 24.01309 3074 ft 225 kts 36°
2026-05-05 18:03 38.00979 24.02582 3559 ft 243 kts 36°
2026-05-05 18:03 38.02335 24.03889 4490 ft 246 kts 35°
2026-05-05 18:04 38.03699 24.05200 5456 ft 248 kts 33°
2026-05-05 18:04 38.05259 24.06153 6102 ft 258 kts
2026-05-05 18:04 38.07048 24.06080 6941 ft 261 kts 343°
2026-05-05 18:04 38.08630 24.04941 7788 ft 267 kts 317°
2026-05-05 18:05 38.09610 24.02907 8549 ft 283 kts 290°
2026-05-05 18:05 38.09806 24.00305 8869 ft 311 kts 272°
2026-05-05 18:05 38.09759 23.97449 9120 ft 336 kts 271°
2026-05-05 18:05 38.09669 23.94382 9307 ft 359 kts 270°
2026-05-05 18:06 38.09561 23.91120 9459 ft 381 kts 270°
2026-05-05 18:06 38.09485 23.88867 9737 ft 389 kts 270°
2026-05-05 18:06 38.09344 23.84230 10547 ft 396 kts 271°
2026-05-05 18:06 38.09249 23.80720 11173 ft 399 kts 271°
2026-05-05 18:07 38.09164 23.77187 11800 ft 403 kts 271°
2026-05-05 18:07 38.09084 23.73621 12412 ft 406 kts 271°
2026-05-05 18:07 38.09002 23.70016 13032 ft 409 kts 271°
2026-05-05 18:07 38.08917 23.66393 13657 ft 413 kts 271°
2026-05-05 18:08 38.08829 23.62733 14198 ft 416 kts 271°
2026-05-05 18:08 38.08735 23.59050 14753 ft 418 kts 271°
2026-05-05 18:08 38.08642 23.55359 15313 ft 420 kts 271°
2026-05-05 18:08 38.08548 23.51644 15867 ft 422 kts 271°
2026-05-05 18:09 38.08454 23.47918 16423 ft 423 kts 271°
2026-05-05 18:09 38.08356 23.44176 16986 ft 425 kts 271°
2026-05-05 18:09 38.08260 23.40426 17554 ft 426 kts 271°
2026-05-05 18:09 38.08157 23.36662 18116 ft 428 kts 271°
2026-05-05 18:10 38.08050 23.32878 18605 ft 430 kts 271°
2026-05-05 18:10 38.07939 23.29073 19068 ft 432 kts 271°
2026-05-05 18:10 38.07831 23.25255 19523 ft 434 kts 271°
2026-05-05 18:10 38.07722 23.21419 19992 ft 435 kts 271°
2026-05-05 18:11 38.07612 23.17575 20484 ft 437 kts 271°
2026-05-05 18:11 38.07501 23.13718 20905 ft 438 kts 271°
2026-05-05 18:11 38.07388 23.09843 21296 ft 440 kts 271°
2026-05-05 18:11 38.07275 23.05955 21664 ft 442 kts 271°
2026-05-05 18:12 38.07163 23.02042 22028 ft 444 kts 271°
2026-05-05 18:12 38.07045 22.98122 22390 ft 446 kts 271°
2026-05-05 18:12 38.06922 22.94182 22754 ft 447 kts 271°
2026-05-05 18:12 38.06796 22.90232 23125 ft 449 kts 271°
2026-05-05 18:13 38.06768 22.86271 23486 ft 447 kts 278°
2026-05-05 18:13 38.07424 22.82442 23805 ft 443 kts 292°
2026-05-05 18:13 38.08822 22.78972 24113 ft 441 kts 304°
2026-05-05 18:13 38.10492 22.75701 24410 ft 443 kts 304°
2026-05-05 18:14 38.12183 22.72425 24725 ft 444 kts 304°
2026-05-05 18:14 38.13884 22.69142 25051 ft 445 kts 304°
2026-05-05 18:14 38.15586 22.65859 25376 ft 447 kts 304°
2026-05-05 18:14 38.17294 22.62554 25729 ft 447 kts 304°
2026-05-05 18:15 38.18989 22.59253 26223 ft 444 kts 304°
2026-05-05 18:15 38.20667 22.55970 26765 ft 441 kts 304°
2026-05-05 18:15 38.22319 22.52732 27503 ft 434 kts 304°
2026-05-05 18:15 38.23406 22.50602 27861 ft 432 kts 304°
2026-05-05 18:16 38.25595 22.46314 28409 ft 433 kts 304°
2026-05-05 18:16 38.26675 22.44200 28858 ft 428 kts 304°
2026-05-05 18:16 38.28293 22.41035 29494 ft 425 kts 304°
2026-05-05 18:16 38.29905 22.37885 29934 ft 425 kts 304°
2026-05-05 18:17 38.31516 22.34731 30111 ft 425 kts 304°
2026-05-05 18:17 38.34713 22.28442 30109 ft 417 kts 304°
2026-05-05 18:18 38.37821 22.22306 30112 ft 410 kts 304°
2026-05-05 18:18 38.40911 22.16206 30118 ft 409 kts 304°
2026-05-05 18:19 38.43998 22.10106 30116 ft 409 kts 304°
2026-05-05 18:19 38.47081 22.04006 30124 ft 409 kts 304°
2026-05-05 18:20 38.50156 21.97900 30125 ft 409 kts 304°
2026-05-05 18:20 38.53224 21.91779 30127 ft 409 kts 304°
2026-05-05 18:21 38.56284 21.85666 30127 ft 408 kts 304°
2026-05-05 18:21 38.59344 21.79551 30121 ft 408 kts 304°
2026-05-05 18:22 38.62393 21.73423 30105 ft 408 kts 302°
2026-05-05 18:22 38.65227 21.67126 30103 ft 409 kts 301°
2026-05-05 18:23 38.67993 21.60747 30111 ft 410 kts 301°
2026-05-05 18:23 38.70745 21.54344 30116 ft 411 kts 301°
2026-05-05 18:24 38.73489 21.47934 30127 ft 410 kts 301°
2026-05-05 18:24 38.76230 21.41531 30128 ft 410 kts 301°
2026-05-05 18:25 38.78970 21.35124 30114 ft 409 kts 300°
2026-05-05 18:25 38.79868 21.33021 29736 ft 405 kts 300°
2026-05-05 18:25 38.81665 21.28806 28709 ft 401 kts 300°
2026-05-05 18:25 38.82999 21.25675 27977 ft 398 kts 300°
2026-05-05 18:26 38.84320 21.22568 27277 ft 395 kts 300°
2026-05-05 18:26 38.85630 21.19487 26595 ft 392 kts 300°
2026-05-05 18:26 38.86944 21.16393 25504 ft 399 kts 300°
2026-05-05 18:26 38.88291 21.13224 24267 ft 410 kts 300°
2026-05-05 18:27 38.89670 21.09978 23122 ft 416 kts 300°
2026-05-05 18:27 38.91056 21.06716 22498 ft 421 kts 300°
2026-05-05 18:27 38.92468 21.03383 21975 ft 428 kts 300°
2026-05-05 18:27 38.93891 21.00016 21457 ft 428 kts 299°
2026-05-05 18:28 38.96716 20.93312 20468 ft 425 kts 299°
2026-05-05 18:28 38.98118 20.89979 19967 ft 423 kts 299°
2026-05-05 18:28 38.99517 20.86655 19491 ft 421 kts 299°
2026-05-05 18:29 39.00908 20.83348 19014 ft 420 kts 299°
2026-05-05 18:29 39.02292 20.80054 18535 ft 418 kts 299°
2026-05-05 18:29 39.03652 20.76810 17908 ft 416 kts 299°
2026-05-05 18:29 39.05021 20.73538 17251 ft 414 kts 299°
2026-05-05 18:30 39.06384 20.70279 16614 ft 412 kts 299°
2026-05-05 18:30 39.07739 20.67041 15989 ft 410 kts 299°
2026-05-05 18:30 39.09087 20.63816 15373 ft 408 kts 299°
2026-05-05 18:30 39.10428 20.60601 14781 ft 407 kts 299°
2026-05-05 18:31 39.11766 20.57393 14189 ft 406 kts 299°
2026-05-05 18:31 39.13097 20.54196 13563 ft 404 kts 299°
2026-05-05 18:31 39.14407 20.51042 12902 ft 390 kts 299°
2026-05-05 18:31 39.15656 20.48024 12267 ft 377 kts 299°
2026-05-05 18:32 39.16884 20.45059 11637 ft 373 kts 298°
2026-05-05 18:32 39.18104 20.42121 11027 ft 371 kts 298°
2026-05-05 18:32 39.19321 20.39193 10426 ft 368 kts 298°
2026-05-05 18:32 39.20521 20.36295 9813 ft 364 kts 298°
2026-05-05 18:33 39.21701 20.33432 9249 ft 358 kts 298°
2026-05-05 18:33 39.22850 20.30646 8747 ft 342 kts 298°
2026-05-05 18:33 39.23940 20.28008 8238 ft 324 kts 298°
2026-05-05 18:33 39.24977 20.25492 7741 ft 314 kts 298°
2026-05-05 18:34 39.25999 20.23023 7247 ft 311 kts 300°
2026-05-05 18:34 39.27275 20.20816 6767 ft 301 kts 310°
2026-05-05 18:34 39.28604 20.18793 6276 ft 291 kts 310°
2026-05-05 18:34 39.29893 20.16831 5758 ft 282 kts 309°
2026-05-05 18:35 39.31144 20.14924 5269 ft 275 kts 309°
2026-05-05 18:35 39.32361 20.13062 4774 ft 268 kts 309°
2026-05-05 18:35 39.33547 20.11240 4261 ft 262 kts 309°
2026-05-05 18:35 39.34695 20.09475 4009 ft 248 kts 309°
2026-05-05 18:36 39.35769 20.07823 3837 ft 233 kts 309°
2026-05-05 18:36 39.36807 20.06231 3652 ft 229 kts 309°
2026-05-05 18:36 39.37831 20.04657 3345 ft 228 kts 309°
2026-05-05 18:36 39.38852 20.03089 3035 ft 228 kts 309°
2026-05-05 18:37 39.39866 20.01527 2908 ft 227 kts 309°
2026-05-05 18:37 39.40884 19.99960 2914 ft 228 kts 309°
2026-05-05 18:37 39.41941 19.98433 2912 ft 228 kts 319°
2026-05-05 18:37 39.43317 19.97421 2914 ft 230 kts 341°
2026-05-05 18:38 39.44855 19.96843 2915 ft 230 kts 343°
2026-05-05 18:38 39.46397 19.96271 2855 ft 230 kts 343°
2026-05-05 18:38 39.47915 19.95707 2489 ft 222 kts 343°
2026-05-05 18:38 39.49344 19.95175 2162 ft 204 kts 343°
2026-05-05 18:39 39.50656 19.94685 1882 ft 188 kts 342°
2026-05-05 18:39 39.51856 19.94235 1648 ft 170 kts 342°
2026-05-05 18:39 39.52895 19.93789 1516 ft 149 kts 333°
2026-05-05 18:39 39.53787 19.93195 1263 ft 141 kts 330°
2026-05-05 18:40 39.54674 19.92679 985 ft 139 kts 341°
2026-05-05 18:40 39.55621 19.92404 799 ft 140 kts 347°
2026-05-05 18:40 39.56568 19.92137 605 ft 139 kts 347°
2026-05-05 18:40 39.57506 19.91896 392 ft 139 kts 348°
2026-05-05 18:41 39.58459 19.91660 202 ft 139 kts 347°
2026-05-05 18:41 39.59414 19.91415 12 ft 137 kts 347°
2026-05-05 18:41 39.60211 19.91208 11 ft 84 kts 349°
2026-05-05 18:41 39.60527 19.91163 10 ft 24 kts 18°
2026-05-05 18:42 39.60633 19.91214 9 ft 13 kts 15°
2026-05-05 18:42 39.60673 19.91221 10 ft 2 kts 357°
2026-05-05 18:42 39.60704 19.91214 9 ft 10 kts 348°
2026-05-05 18:42 39.60743 19.91211 9 ft 2 kts 46°
2026-05-05 18:43 39.60732 19.91216 9 ft 2 kts 172°
2026-05-05 18:43 39.60662 19.91227 9 ft 16 kts 174°
2026-05-05 18:43 39.60616 19.91275 9 ft 4 kts 94°
2026-05-05 18:43 39.60623 19.91319 9 ft 6 kts 79°
2026-05-05 18:44 39.60627 19.91347 11 ft 1 kts 79°
2026-05-05 18:44 39.60629 19.91363 9 ft 1 kts 79°
2026-05-05 18:44 39.60630 19.91367 9 ft 0 kts 79°